tititudorancea.com
Station Historical Data
Daily Summary for August 27, 2018 Units:  Metric    English   Both
« Previous Day
Next Day »
Daily Weekly Monthly Yearly Custom
  High: Low: Average:
Temperature: -17.8 °C 0.9 °C 5.8 °C
Dew Point: -17.8 °C -0.2 °C 2.3 °C
Humidity: Humidity % 50 % 80 %
Wind Speed: 0 km/h 0 km/h 11.6 km/h
Wind Gust: 0 km/h - -
Wind:- - South
Pressure: 0 hPa 1022.2 hPa -
Precipitation: 0.2 mm    
Historical Graphs
 
 
Ararat weather Find more about Weather in Ararat, AU


 



 


Tabular Data for August 27, 2018
Time Temperature Dew Point Pressure Wind Wind Speed Wind Gust Humidity Rainfall Rate (Hourly)
-17.8 °C -17.8 °C 0 hPa Calm     Humidity % 0 mm
00:04 5.7 °C 4.8 °C 1022.6 hPa South 11.1 km/h 6.4 km/h 94 % 0.2 mm
00:09 5.6 °C 4.7 °C 1022.6 hPa South 9.3 km/h 5.8 km/h 94 % 0.2 mm
00:14 5.5 °C 4.6 °C 1022.2 hPa South 7.4 km/h 4.7 km/h 94 % 0.2 mm
00:19 5.4 °C 4.6 °C 1022.6 hPa South 5.6 km/h 3.9 km/h 94 % 0 mm
00:24 5.4 °C 4.5 °C 1022.6 hPa South 5.6 km/h 4.3 km/h 94 % 0 mm
00:29 5.3 °C 4.4 °C 1022.6 hPa South 5.6 km/h 2.3 km/h 94 % 0 mm
00:34 5.2 °C 4.3 °C 1022.6 hPa South 5.6 km/h 2.7 km/h 94 % 0 mm
00:39 5.2 °C 4.3 °C 1022.6 hPa South 5.6 km/h 3.7 km/h 94 % 0 mm
00:44 5.1 °C 4.2 °C 1022.6 hPa South 5.6 km/h 6.8 km/h 94 % 0 mm
00:49 5.1 °C 4.2 °C 1022.6 hPa South 9.3 km/h 5 km/h 94 % 0 mm
00:54 5 °C 4.1 °C 1022.6 hPa South 7.4 km/h 4.3 km/h 94 % 0 mm
00:59 4.9 °C 4.8 °C 1022.9 hPa South 5.6 km/h 4.8 km/h 99 % 0 mm
01:04 4.8 °C 3.9 °C 1022.9 hPa South 5.6 km/h 4.2 km/h 94 % 0 mm
01:09 4.7 °C 3.8 °C 1022.9 hPa South 5.6 km/h 3.7 km/h 94 % 0 mm
01:14 4.6 °C 3.7 °C 1022.9 hPa South 7.4 km/h 4.5 km/h 94 % 0 mm
01:19 4.4 °C 3.6 °C 1022.9 hPa South 7.4 km/h 4.8 km/h 94 % 0 mm
01:24 4.3 °C 3.4 °C 1022.9 hPa South 7.4 km/h 5 km/h 94 % 0 mm
01:29 4.3 °C 3.4 °C 1022.9 hPa South 9.7 km/h 5.6 km/h 94 % 0 mm
01:34 4.2 °C 3.3 °C 1022.9 hPa South 6.4 km/h 6.9 km/h 94 % 0 mm
01:39 4.2 °C 3.3 °C 1022.9 hPa South 9.7 km/h 6.3 km/h 94 % 0 mm
01:44 4.2 °C 3.3 °C 1022.9 hPa South 11.1 km/h 8.2 km/h 94 % 0 mm
01:49 4.3 °C 3.4 °C 1022.9 hPa South 11.1 km/h 5.1 km/h 94 % 0 mm
01:54 4.2 °C 3.3 °C 1022.9 hPa South 7.4 km/h 5.1 km/h 94 % 0 mm
01:59 4.1 °C 3.2 °C 1022.9 hPa South 14.8 km/h 5.3 km/h 94 % 0 mm
02:04 4.1 °C 3.2 °C 1022.9 hPa South 9.3 km/h 6.8 km/h 94 % 0 mm
02:09 4 °C 3.1 °C 1022.9 hPa South 9.7 km/h 8.7 km/h 94 % 0 mm
02:14 3.8 °C 2.9 °C 1022.9 hPa South 9.3 km/h 7.2 km/h 94 % 0 mm
02:19 3.7 °C 2.7 °C 1022.9 hPa South 9.7 km/h 6.9 km/h 93 % 0 mm
02:24 3.7 °C 2.7 °C 1022.9 hPa South 13 km/h 8.5 km/h 93 % 0 mm
02:29 3.6 °C 2.6 °C 1022.9 hPa South 9.3 km/h 6.3 km/h 93 % 0 mm
02:34 3.6 °C 2.6 °C 1022.9 hPa South 5.6 km/h 3.5 km/h 93 % 0 mm
02:39 3.6 °C 2.6 °C 1022.9 hPa South 9.3 km/h 5.5 km/h 93 % 0 mm
02:44 3.5 °C 2.5 °C 1022.9 hPa South 7.4 km/h 5.3 km/h 93 % 0 mm
02:49 3.5 °C 2.5 °C 1022.9 hPa South 6.4 km/h 5.8 km/h 93 % 0 mm
02:54 3.4 °C 2.4 °C 1022.9 hPa South 8 km/h 6.1 km/h 93 % 0 mm
02:59 3.5 °C 2.5 °C 1022.9 hPa South 7.4 km/h 5.8 km/h 93 % 0 mm
03:04 3.6 °C 2.6 °C 1022.9 hPa South 9.3 km/h 7.1 km/h 93 % 0 mm
03:09 3.5 °C 2.5 °C 1022.9 hPa South 7.4 km/h 5.8 km/h 93 % 0 mm
03:14 3.4 °C 2.4 °C 1022.9 hPa South 9.3 km/h 5.1 km/h 93 % 0 mm
03:19 3.3 °C 2.3 °C 1022.9 hPa South 7.4 km/h 4.8 km/h 93 % 0 mm
03:24 3.3 °C 2.3 °C 1022.9 hPa South 8 km/h 6 km/h 93 % 0 mm
03:29 3.2 °C 2.2 °C 1022.9 hPa South 7.4 km/h 7.1 km/h 93 % 0 mm
03:34 3.1 °C 2.1 °C 1022.9 hPa South 11.1 km/h 8 km/h 93 % 0 mm
03:39 3.1 °C 2.1 °C 1022.9 hPa South 11.1 km/h 7.9 km/h 93 % 0 mm
03:44 3.2 °C 2.2 °C 1022.9 hPa South 11.1 km/h 8.2 km/h 93 % 0 mm
03:49 3.3 °C 2.3 °C 1023.2 hPa South 7.4 km/h 4.2 km/h 93 % 0 mm
03:54 3.3 °C 2.3 °C 1022.9 hPa North 11.1 km/h 5.3 km/h 93 % 0 mm
03:59 3.3 °C 2.3 °C 1022.9 hPa South 11.1 km/h 8.2 km/h 93 % 0 mm
04:04 3.3 °C 2.2 °C 1022.9 hPa North 9.3 km/h 7.4 km/h 92 % 0 mm
04:09 3.3 °C 2.1 °C 1022.9 hPa South 13 km/h 8.5 km/h 92 % 0 mm
04:14 3.3 °C 2.1 °C 1022.9 hPa South 16.7 km/h 8.7 km/h 92 % 0 mm
04:19 3.3 °C 2.1 °C 1023.2 hPa South 11.1 km/h 11.3 km/h 92 % 0 mm
04:24 3.3 °C 2.2 °C 1023.2 hPa South 14.8 km/h 8.5 km/h 92 % 0 mm
04:29 3.3 °C 2.2 °C 1023.2 hPa South 13 km/h 10 km/h 92 % 0 mm
04:34 3.3 °C 2.2 °C 1023.2 hPa South 18.5 km/h 12.7 km/h 92 % 0 mm
04:39 3.5 °C 2.2 °C 1023.2 hPa South 16.7 km/h 11.9 km/h 91 % 0 mm
04:44 3.5 °C 2.2 °C 1023.2 hPa South 20.9 km/h 13.4 km/h 91 % 0 mm
04:49 3.5 °C 2.2 °C 1023.2 hPa South 14.8 km/h 11.7 km/h 91 % 0 mm
04:54 3.4 °C 2.1 °C 1023.2 hPa South 16.7 km/h 8 km/h 91 % 0 mm
04:59 3.4 °C 2.1 °C 1023.6 hPa South 18.5 km/h 9.3 km/h 91 % 0 mm
05:04 3.3 °C 2 °C 1023.6 hPa South 11.1 km/h 8 km/h 91 % 0 mm
05:09 3.3 °C 1.9 °C 1023.6 hPa South 13 km/h 9.3 km/h 91 % 0 mm
05:14 3.2 °C 1.9 °C 1023.6 hPa South 11.1 km/h 5.1 km/h 91 % 0 mm
05:19 3.1 °C 1.8 °C 1023.6 hPa South 7.4 km/h 2.7 km/h 91 % 0 mm
05:24 3 °C 1.7 °C 1023.9 hPa South 5.6 km/h 5.3 km/h 91 % 0 mm
05:29 2.9 °C 1.6 °C 1023.9 hPa South 9.3 km/h 5.5 km/h 91 % 0 mm
05:34 2.9 °C 1.6 °C 1023.9 hPa South 9.3 km/h 2.9 km/h 91 % 0 mm
05:39 2.8 °C 1.4 °C 1023.9 hPa South 5.6 km/h 2.9 km/h 91 % 0 mm
05:44 2.6 °C 1.2 °C 1024.3 hPa South 3.7 km/h 1 km/h 91 % 0 mm
05:49 2.4 °C 1.1 °C 1023.9 hPa North 5.6 km/h 1.1 km/h 91 % 0 mm
05:54 2.2 °C 0.9 °C 1024.3 hPa South 3.7 km/h 1.9 km/h 91 % 0 mm
05:59 2 °C 0.7 °C 1024.3 hPa North 3.7 km/h 2.9 km/h 91 % 0 mm
06:04 1.8 °C 0.4 °C 1024.3 hPa South 5.6 km/h 4.3 km/h 91 % 0 mm
06:09 1.6 °C 0.2 °C 1024.3 hPa South 9.3 km/h 6.3 km/h 91 % 0 mm
06:14 1.3 °C 0 °C 1024.3 hPa South 5.6 km/h 4 km/h 91 % 0 mm
06:19 1.2 °C 0.1 °C 1024.3 hPa South 5.6 km/h 5.6 km/h 92 % 0 mm
06:24 1.2 °C 0.1 °C 1024.6 hPa South 5.6 km/h 3.9 km/h 92 % 0 mm
06:29 1.2 °C 0 °C 1024.6 hPa North 6.4 km/h 4.7 km/h 92 % 0 mm
06:34 1.2 °C 0 °C 1024.6 hPa South 6.4 km/h 4.7 km/h 92 % 0 mm
06:39 1.2 °C 0 °C 1024.6 hPa South 5.6 km/h 4.7 km/h 92 % 0 mm
06:44 1.1 °C -0.1 °C 1024.9 hPa South 9.3 km/h 3.1 km/h 92 % 0 mm
06:49 1 °C -0.2 °C 1024.9 hPa South 7.4 km/h 5.5 km/h 92 % 0.2 mm
06:54 0.9 °C -0.1 °C 1024.9 hPa South 7.4 km/h 4.2 km/h 93 % 0.2 mm
06:59 0.9 °C -0.1 °C 1024.9 hPa South 8 km/h 4.8 km/h 93 % 0.2 mm
07:04 0.9 °C 0.9 °C 1024.9 hPa South 5.6 km/h 4.3 km/h 100 % 0.2 mm
07:09 1.1 °C 0.1 °C 1024.9 hPa North 9.7 km/h 7.1 km/h 93 % 0.2 mm
07:14 1.2 °C 0.2 °C 1025.3 hPa South 9.3 km/h 4.8 km/h 93 % 0.2 mm
07:19 1.2 °C 0.2 °C 1025.3 hPa South 7.4 km/h 4.7 km/h 93 % 0.2 mm
07:24 1.2 °C 0.2 °C 1025.3 hPa South 8 km/h 6.3 km/h 93 % 0.2 mm
07:29 1.4 °C 0.6 °C 1025.6 hPa South 7.4 km/h 4.7 km/h 94 % 0.2 mm
07:34 1.5 °C 0.7 °C 1025.6 hPa South 8 km/h 5.1 km/h 94 % 0.2 mm
07:39 1.6 °C 0.7 °C 1025.6 hPa South 11.1 km/h 6.1 km/h 94 % 0.2 mm
07:44 1.8 °C 0.9 °C 1025.6 hPa South 14.8 km/h 5.1 km/h 94 % 0.2 mm
07:49 1.9 °C 1.1 °C 1026 hPa South 9.3 km/h 5.5 km/h 94 % 0 mm
07:54 2.2 °C 1.3 °C 1026 hPa South 7.4 km/h 3.7 km/h 94 % 0 mm
07:59 2.3 °C 1.4 °C 1026 hPa South 16.7 km/h 9.8 km/h 94 % 0 mm
08:04 2.6 °C 1.7 °C 1026 hPa South 18.5 km/h 12.2 km/h 94 % 0 mm
08:09 2.8 °C 1.9 °C 1026 hPa South 13 km/h 8.5 km/h 94 % 0 mm
08:14 3 °C 2 °C 1026.3 hPa South 14.8 km/h 10.3 km/h 93 % 0 mm
08:19 3.2 °C 2.2 °C 1026.3 hPa South 11.1 km/h 8.7 km/h 93 % 0 mm
08:24 3.4 °C 2.4 °C 1026.3 hPa South 9.7 km/h 6.3 km/h 93 % 0 mm
08:29 3.7 °C 2.5 °C 1026.3 hPa South 13 km/h 7.7 km/h 92 % 0 mm
08:34 3.9 °C 2.8 °C 1026.3 hPa South 11.1 km/h 7.9 km/h 92 % 0 mm
08:39 4.2 °C 2.8 °C 1026.3 hPa South 16.7 km/h 9.7 km/h 91 % 0 mm
08:44 4.3 °C 2.8 °C 1026.6 hPa South 18.5 km/h 18.5 km/h 90 % 0 mm
08:49 4.5 °C 3 °C 1026.6 hPa South 13 km/h 7.9 km/h 90 % 0 mm
08:54 4.8 °C 3.1 °C 1026.6 hPa SSW 9.7 km/h 14.6 km/h 89 % 0 mm
08:59 4.9 °C 3.2 °C 1026.6 hPa South 13 km/h 12.6 km/h 89 % 0 mm
09:04 5 °C 3.2 °C 1026.6 hPa South 11.1 km/h 7.2 km/h 88 % 0 mm
09:09 5.3 °C 3.5 °C 1026.6 hPa South 13 km/h 8 km/h 88 % 0 mm
09:14 5.5 °C 3.5 °C 1026.6 hPa South 13 km/h 8.7 km/h 87 % 0 mm
09:19 5.8 °C 3.8 °C 1026.6 hPa South 9.3 km/h 8 km/h 87 % 0 mm
09:24 6 °C 3.8 °C 1026.6 hPa South 11.1 km/h 9.8 km/h 86 % 0 mm
09:29 6.1 °C 3.9 °C 1026.6 hPa South 18.5 km/h 12.1 km/h 86 % 0 mm
09:34 6.3 °C 3.8 °C 1026.6 hPa South 20.4 km/h 9.2 km/h 84 % 0 mm
09:39 6.6 °C 4.1 °C 1026.6 hPa South 13 km/h 10.9 km/h 84 % 0 mm
09:44 6.7 °C 3.9 °C 1026.6 hPa South 20.4 km/h 11.3 km/h 82 % 0 mm
09:49 6.9 °C 3.9 °C 1026.6 hPa South 16.1 km/h 13.7 km/h 81 % 0 mm
09:54 7.2 °C 4.2 °C 1026.6 hPa South 16.7 km/h 9.2 km/h 81 % 0 mm
09:59 7.4 °C 4 °C 1026.6 hPa South 24.1 km/h 12.6 km/h 79 % 0 mm
10:04 7.4 °C 3.7 °C 1026.6 hPa SSE 22.2 km/h 15.8 km/h 77 % 0 mm
10:09 7.7 °C 3.7 °C 1026.6 hPa South 20.4 km/h 8.7 km/h 76 % 0 mm
10:14 7.9 °C 3.8 °C 1026.6 hPa SSE 18.5 km/h 10.9 km/h 75 % 0 mm
10:19 8.2 °C 4.1 °C 1026.6 hPa SSE 27.8 km/h 13 km/h 75 % 0 mm
10:24 8.4 °C 4.2 °C 1026.6 hPa SSE 18.5 km/h 13.2 km/h 75 % 0 mm
10:29 8.4 °C 3.3 °C 1026.6 hPa SE 27.8 km/h 20.3 km/h 70 % 0 mm
10:34 8.5 °C 3.1 °C 1026.6 hPa SSE 29 km/h 15.1 km/h 69 % 0 mm
10:39 8.6 °C 3.7 °C 1026.6 hPa South 29.6 km/h 10.8 km/h 71 % 0 mm
10:44 8.8 °C 3.4 °C 1026.6 hPa SSE 35.2 km/h 17.9 km/h 69 % 0 mm
10:49 8.8 °C 3 °C 1026.6 hPa SE 27.8 km/h 16.4 km/h 67 % 0 mm
10:54 8.9 °C 2.9 °C 1026.6 hPa SSE 29.6 km/h 16.1 km/h 66 % 0 mm
10:59 8.9 °C 2.7 °C 1026.6 hPa SSE 24.1 km/h 17.7 km/h 65 % 0 mm
11:04 9 °C 2.6 °C 1026.6 hPa South 22.2 km/h 13.5 km/h 64 % 0 mm
11:09 9.2 °C 2.7 °C 1026.6 hPa SSE 25.9 km/h 15.6 km/h 64 % 0 mm
11:14 8.9 °C 2.2 °C 1026.6 hPa SSE 31.5 km/h 13.2 km/h 63 % 0 mm
11:19 8.8 °C 2.2 °C 1026.6 hPa SSE 27.8 km/h 19.6 km/h 63 % 0 mm
11:24 8.7 °C 2.7 °C 1026.6 hPa South 22.5 km/h 16.3 km/h 66 % 0 mm
11:29 9.1 °C 2.8 °C 1026.6 hPa South 27.8 km/h 17.1 km/h 65 % 0 mm
11:34 9.2 °C 3 °C 1026.6 hPa South 22.2 km/h 13.2 km/h 65 % 0 mm
11:39 9.2 °C 2.1 °C 1026.6 hPa South 29.6 km/h 22.2 km/h 61 % 0 mm
11:44 9.4 °C 2.9 °C 1026.3 hPa South 24.1 km/h 12.1 km/h 64 % 0 mm
11:49 9.4 °C 2.4 °C 1026.3 hPa SSE 24.1 km/h 12.9 km/h 62 % 0 mm
11:54 9.4 °C 1.8 °C 1026.3 hPa South 27.8 km/h 14 km/h 59 % 0 mm
11:59 9.4 °C 1.8 °C 1026.3 hPa SSE 20.4 km/h 14.2 km/h 59 % 0 mm
12:04 9.4 °C 2.5 °C 1026.3 hPa SSE 20.4 km/h 16.3 km/h 62 % 0 mm
12:09 9.6 °C 2.9 °C 1026.3 hPa SSE 27.8 km/h 14.5 km/h 63 % 0 mm
12:14 9.7 °C 2.9 °C 1026.3 hPa SSE 29.6 km/h 15.8 km/h 63 % 0 mm
12:19 9.4 °C 2.1 °C 1026.3 hPa South 22.2 km/h 18.5 km/h 60 % 0 mm
12:24 9.4 °C 2.1 °C 1026 hPa SSE 18.5 km/h 11.4 km/h 60 % 0 mm
12:29 9.7 °C 2.6 °C 1026 hPa South 20.4 km/h 15.9 km/h 61 % 0 mm
12:34 10.2 °C 2.3 °C 1026 hPa SE 24.1 km/h 17.1 km/h 58 % 0 mm
12:39 10.2 °C 2.1 °C 1026 hPa ESE 29.6 km/h 12.7 km/h 57 % 0 mm
12:44 10.4 °C 1.7 °C 1026 hPa SE 31.5 km/h 15.3 km/h 55 % 0 mm
12:49 10.6 °C 2.6 °C 1026 hPa SSE 16.7 km/h 12.2 km/h 58 % 0 mm
12:54 10.3 °C 0.8 °C 1026 hPa SSE 31.5 km/h 14.5 km/h 52 % 0 mm
12:59 10 °C 1.1 °C 1026 hPa SE 27.8 km/h 24 km/h 54 % 0 mm
13:04 10.1 °C 1.2 °C 1026 hPa SE 22.2 km/h 14.3 km/h 54 % 0 mm
13:09 10.3 °C 1.6 °C 1025.6 hPa SE 29.6 km/h 20.9 km/h 55 % 0 mm
13:14 10.4 °C 2.7 °C 1025.6 hPa SSE 20.4 km/h 18.5 km/h 59 % 0 mm
13:19 10.1 °C 1.9 °C 1025.6 hPa South 20.4 km/h 16.6 km/h 57 % 0 mm
13:24 9.7 °C 1.6 °C 1025.6 hPa SSE 13 km/h 12.1 km/h 57 % 0 mm
13:29 10 °C 1.9 °C 1025.6 hPa SSE 22.2 km/h 9.8 km/h 57 % 0 mm
13:34 10.3 °C 1.9 °C 1025.6 hPa SE 20.4 km/h 16.3 km/h 56 % 0 mm
13:39 10.4 °C 1.3 °C 1025.6 hPa SE 24.1 km/h 20.1 km/h 53 % 0 mm
13:44 10.7 °C 0.7 °C 1025.6 hPa SE 29.6 km/h 20.3 km/h 50 % 0 mm
13:49 10.8 °C 1.3 °C 1025.3 hPa SE 18.5 km/h 15.8 km/h 52 % 0 mm
13:54 10.8 °C 0.8 °C 1025.3 hPa SSE 22.2 km/h 16.4 km/h 50 % 0 mm
13:59 10.8 °C 1.6 °C 1025.3 hPa SSE 22.2 km/h 17.9 km/h 53 % 0 mm
14:04 10.4 °C 1.3 °C 1025.3 hPa SSE 24.1 km/h 15 km/h 53 % 0 mm
14:09 10 °C 1.9 °C 1025.3 hPa South 14.8 km/h 13 km/h 57 % 0 mm
14:14 10.3 °C 1.7 °C 1025.3 hPa SSE 20.4 km/h 22 km/h 55 % 0 mm
14:19 10.4 °C 2.1 °C 1025.3 hPa SE 29.6 km/h 16.6 km/h 56 % 0 mm
14:24 10.3 °C 1.9 °C 1025.3 hPa SE 17.7 km/h 12.7 km/h 56 % 0 mm
14:29 10.6 °C 1.7 °C 1025.3 hPa SE 22.2 km/h 17.4 km/h 54 % 0 mm
14:34 10.7 °C 1.5 °C 1025.3 hPa SE 24.1 km/h 14 km/h 53 % 0 mm
14:39 10.6 °C 1.4 °C 1025.3 hPa South 18.5 km/h 14.2 km/h 53 % 0 mm
14:44 10.3 °C 1.6 °C 1025.3 hPa South 25.9 km/h 12.6 km/h 55 % 0 mm
14:49 10.3 °C 1.6 °C 1025.3 hPa South 18.5 km/h 11.9 km/h 55 % 0 mm
14:54 10.4 °C 1.4 °C 1025.3 hPa SE 20.4 km/h 13.8 km/h 54 % 0 mm
14:59 10.6 °C 1.6 °C 1025.3 hPa SE 13 km/h 9 km/h 54 % 0 mm
15:04 10.8 °C 1.8 °C 1025.3 hPa SSE 17.7 km/h 9.5 km/h 54 % 0 mm
15:09 11.2 °C 1.9 °C 1024.9 hPa SSE 14.5 km/h 12.1 km/h 53 % 0 mm
15:14 11.2 °C 2.2 °C 1024.9 hPa SE 30.6 km/h 13.7 km/h 54 % 0 mm
15:19 10.6 °C 1.7 °C 1025.3 hPa SE 27.8 km/h 15 km/h 54 % 0 mm
15:24 10.2 °C 1.8 °C 1025.3 hPa SSE 14.8 km/h 8.4 km/h 56 % 0 mm
15:29 10 °C 1.4 °C 1025.3 hPa SE 16.7 km/h 9.2 km/h 55 % 0 mm
15:34 10.2 °C 1.5 °C 1025.3 hPa SE 16.7 km/h 7.7 km/h 55 % 0 mm
15:39 10.5 °C 1.8 °C 1024.9 hPa SE 11.3 km/h 10.3 km/h 55 % 0 mm
15:44 10.7 °C 1.8 °C 1024.9 hPa SSE 18.5 km/h 13.5 km/h 54 % 0 mm
15:49 10.6 °C 2.1 °C 1024.9 hPa SSE 19.3 km/h 13.4 km/h 56 % 0 mm
15:54 10.4 °C 2.5 °C 1025.3 hPa SE 17.7 km/h 10.1 km/h 58 % 0 mm
15:59 10.2 °C 2.3 °C 1025.3 hPa SE 13 km/h 5.3 km/h 58 % 0 mm
16:04 9.9 °C 2.6 °C 1025.3 hPa SSE 14.8 km/h 7.7 km/h 60 % 0 mm
16:09 10.1 °C 2.9 °C 1025.3 hPa SSE 13 km/h 5.3 km/h 61 % 0 mm
16:14 10.2 °C 2.3 °C 1025.3 hPa SE 18.5 km/h 10.9 km/h 58 % 0 mm
16:19 9.9 °C 2.1 °C 1025.3 hPa ESE 19.3 km/h 14 km/h 58 % 0 mm
16:24 9.7 °C 2.1 °C 1025.3 hPa SE 18.5 km/h 18.3 km/h 59 % 0 mm
16:29 9.6 °C 2.4 °C 1025.3 hPa SE 14.8 km/h 9 km/h 61 % 0 mm
16:34 9.6 °C 2.8 °C 1025.3 hPa SE 16.7 km/h 7.4 km/h 63 % 0 mm
16:39 9.3 °C 2.9 °C 1025.3 hPa SE 18.5 km/h 14.2 km/h 64 % 0 mm
16:44 9.1 °C 3.1 °C 1025.3 hPa SE 14.8 km/h 10 km/h 66 % 0 mm
16:49 8.9 °C 3.1 °C 1025.3 hPa SE 11.1 km/h 8.4 km/h 67 % 0 mm
16:54 8.7 °C 3.2 °C 1025.3 hPa SE 9.3 km/h 6.1 km/h 68 % 0 mm
16:59 8.6 °C 3.2 °C 1025.3 hPa SE 9.3 km/h 4.2 km/h 69 % 0 mm
17:04 8.4 °C 3 °C 1025.3 hPa SE 8 km/h 7.7 km/h 69 % 0 mm
17:09 8.3 °C 3.2 °C 1025.3 hPa SE 7.4 km/h 7.7 km/h 70 % 0 mm
17:14 8.3 °C 3.4 °C 1025.6 hPa SE 11.1 km/h 6.6 km/h 71 % 0 mm
17:19 8.4 °C 3.5 °C 1025.3 hPa SE 9.7 km/h 7.1 km/h 71 % 0 mm
17:24 8.4 °C 3.5 °C 1025.6 hPa SE 7.4 km/h 3.5 km/h 71 % 0 mm
17:29 8.4 °C 3.5 °C 1025.6 hPa SE 8 km/h 4.8 km/h 71 % 0 mm
17:34 8.6 °C 3.6 °C 1025.6 hPa SE 5.6 km/h 6.6 km/h 71 % 0 mm
17:39 8.6 °C 3.7 °C 1025.6 hPa SE 11.1 km/h 4 km/h 71 % 0 mm
17:44 8.7 °C 3.5 °C 1025.6 hPa SE 9.3 km/h 5.1 km/h 70 % 0 mm
17:49 8.7 °C 3.6 °C 1025.6 hPa SE 7.4 km/h 3.1 km/h 70 % 0 mm
17:54 8.7 °C 3.3 °C 1025.6 hPa SE 13 km/h 7.9 km/h 69 % 0 mm
17:59 8.7 °C 3.1 °C 1025.6 hPa SSE 16.7 km/h 11.1 km/h 68 % 0 mm
18:04 8.6 °C 3.2 °C 1025.6 hPa SSE 14.8 km/h 8.4 km/h 69 % 0 mm
18:09 8.4 °C 3.2 °C 1025.6 hPa SSE 14.8 km/h 8 km/h 70 % 0 mm
18:14 8.2 °C 3.2 °C 1025.6 hPa SSE 9.3 km/h 9 km/h 71 % 0 mm
18:19 7.9 °C 3.4 °C 1025.6 hPa SSE 11.1 km/h 7.1 km/h 73 % 0 mm
18:24 7.8 °C 3.4 °C 1025.6 hPa SSE 11.1 km/h 7.2 km/h 74 % 0 mm
18:29 7.6 °C 3.3 °C 1025.6 hPa SSE 9.3 km/h 5.3 km/h 74 % 0 mm
18:34 7.6 °C 3.4 °C 1025.6 hPa SSE 3.7 km/h 1.1 km/h 75 % 0 mm
18:39 7.4 °C 3.3 °C 1025.6 hPa SSE 5.6 km/h 1.1 km/h 75 % 0 mm
18:44 7.4 °C 3.4 °C 1026 hPa SSE 5.6 km/h 1.4 km/h 76 % 0 mm
18:49 7.3 °C 3.3 °C 1026 hPa SSE 3.7 km/h   76 % 0 mm
18:54 7.2 °C 3.4 °C 1026 hPa SSE 7.4 km/h 2.7 km/h 77 % 0 mm
18:59 7 °C 3.2 °C 1026 hPa SSE 5.6 km/h 3.5 km/h 77 % 0 mm
19:04 6.8 °C 3.3 °C 1026 hPa SSE 7.4 km/h 3.1 km/h 78 % 0 mm
19:09 6.8 °C 3.2 °C 1026 hPa Calm     78 % 0 mm
19:14 6.7 °C 3.2 °C 1026.3 hPa Calm     78 % 0 mm
19:19 6.6 °C 3.2 °C 1026.3 hPa Calm     79 % 0 mm
19:24 6.5 °C 3.1 °C 1026.3 hPa Calm     79 % 0 mm
19:29 6.4 °C 3 °C 1026.3 hPa Calm     79 % 0 mm
19:34 6.2 °C 3 °C 1026.3 hPa Calm     80 % 0 mm
19:39 6 °C 2.8 °C 1026.3 hPa Calm     80 % 0 mm
19:44 5.8 °C 2.6 °C 1026.3 hPa Calm     80 % 0 mm
19:49 5.6 °C 2.6 °C 1026.6 hPa Calm     81 % 0 mm
19:54 5.5 °C 2.7 °C 1026.6 hPa Calm     82 % 0 mm
19:59 5.4 °C 2.6 °C 1026.6 hPa Calm     82 % 0 mm
20:04 5.2 °C 2.3 °C 1026.6 hPa Calm     82 % 0 mm
20:09 5 °C 2.3 °C 1026.6 hPa Calm     83 % 0 mm
20:14 4.8 °C 2.3 °C 1026.6 hPa SSE 6.4 km/h 4 km/h 84 % 0 mm
20:19 4.9 °C 2.4 °C 1026.6 hPa SSE 3.7 km/h 2.7 km/h 84 % 0 mm
20:24 4.8 °C 2.5 °C 1026.6 hPa SSE 3.7 km/h 1.8 km/h 85 % 0 mm
20:29 4.8 °C 2.5 °C 1026.6 hPa SSE 7.4 km/h 5.5 km/h 85 % 0 mm
20:34 4.9 °C 2.7 °C 1026.6 hPa SSE 3.7 km/h 1.9 km/h 86 % 0 mm
20:39 4.9 °C 2.7 °C 1026.6 hPa SSE 8 km/h 4.8 km/h 86 % 0 mm
20:44 4.9 °C 2.7 °C 1026.6 hPa SSE 5.6 km/h 3.9 km/h 86 % 0 mm
20:49 4.9 °C 2.8 °C 1026.6 hPa SSE 1.9 km/h 0.8 km/h 86 % 0 mm
20:54 4.9 °C 2.7 °C 1027 hPa SSE 3.7 km/h   86 % 0 mm
20:59 4.8 °C 2.6 °C 1027 hPa Calm     86 % 0 mm
21:04 4.7 °C 2.5 °C 1027 hPa Calm     86 % 0 mm
21:09 4.5 °C 2.3 °C 1027 hPa Calm     86 % 0 mm
21:14 4.3 °C 2.2 °C 1027 hPa Calm     86 % 0 mm
21:19 4.2 °C 2.2 °C 1027 hPa Calm     87 % 0 mm
21:24 4.1 °C 2.1 °C 1027 hPa Calm     87 % 0 mm
21:29 3.9 °C 2.1 °C 1027 hPa Calm     88 % 0 mm
21:34 3.9 °C 2.1 °C 1027 hPa Calm     88 % 0 mm
21:39 3.8 °C 2 °C 1027 hPa Calm     88 % 0 mm
21:44 3.7 °C 1.9 °C 1027 hPa Calm     88 % 0 mm
21:49 3.6 °C 1.8 °C 1027 hPa SSE 1.6 km/h 0.2 km/h 88 % 0 mm
21:54 3.6 °C 1.9 °C 1027 hPa Calm     89 % 0 mm
21:59 3.6 °C 1.9 °C 1027 hPa Calm     89 % 0 mm
22:04 3.6 °C 1.9 °C 1027 hPa SSE 3.7 km/h 1.9 km/h 89 % 0 mm
22:09 3.6 °C 2.1 °C 1027 hPa SSE 3.7 km/h 3.1 km/h 90 % 0 mm
22:14 3.7 °C 2.2 °C 1027 hPa SSE 1.9 km/h   90 % 0 mm
22:19 3.7 °C 2.2 °C 1026.6 hPa Calm     90 % 0 mm
22:24 3.7 °C 2.2 °C 1026.6 hPa SSE 3.7 km/h 0.5 km/h 90 % 0 mm
22:29 3.7 °C 2.4 °C 1026.6 hPa SSE 5.6 km/h 2.1 km/h 91 % 0 mm
22:34 3.7 °C 2.2 °C 1026.6 hPa Calm     90 % 0 mm
22:39 3.7 °C 2.2 °C 1026.6 hPa SSE 1.9 km/h   90 % 0 mm
22:44 3.6 °C 2.1 °C 1026.6 hPa Calm     90 % 0 mm
22:49 3.4 °C 1.9 °C 1026.6 hPa Calm     90 % 0 mm
22:54 3.4 °C 2.1 °C 1026.6 hPa Calm     91 % 0 mm
22:59 3.3 °C 1.9 °C 1026.6 hPa Calm     91 % 0 mm
23:04 3.1 °C 1.6 °C 1026.6 hPa Calm     90 % 0 mm
23:09 3 °C 1.7 °C 1026.6 hPa Calm     91 % 0 mm
23:14 2.9 °C 1.6 °C 1026.6 hPa Calm     91 % 0 mm
23:19 2.8 °C 1.4 °C 1026.6 hPa Calm     91 % 0 mm
23:24 2.7 °C 1.3 °C 1026.6 hPa Calm     91 % 0 mm
23:29 2.7 °C 1.3 °C 1026.6 hPa Calm     91 % 0 mm
23:34 2.5 °C 1.2 °C 1026.3 hPa Calm     91 % 0 mm
23:39 2.4 °C 1.1 °C 1026.3 hPa Calm     91 % 0 mm
23:44 2.4 °C 1.3 °C 1026.3 hPa SSE 3.7 km/h 2.4 km/h 92 % 0 mm
23:49 2.4 °C 1.3 °C 1026.3 hPa SSE 3.7 km/h 0.2 km/h 92 % 0 mm
23:54 2.3 °C 1.2 °C 1026.3 hPa Calm     92 % 0 mm
23:59 2.2 °C 0.9 °C 1026.3 hPa Calm     91 % 0 mm
Ararat Weather
Compliments of Weather Underground - 2.25 mb
Click here to send mail.


ABOUT

Live weather data from Ararat, Victoria, Australia, 3377
Data uploaded from Cumulus every 5 minutes to Weather Underground.
This site then downloads the raw data for formatting and display.
Metric and imperial data can be displayed. Graphs and historical data available.
Includes Sun and Moon times and rain image live from BOM.

Check out Ararat Weather on Facebook, Twitter and Google +

Help support ongoing costs by checking out the ads





Follow @AraratWeather